Thursday, September 20, 2018, 7:07 PM EDT
Back to Local

KDXR, Danbury Municipal Airport

Location: Danbury, CT, United States Lat: 41.367
Local Time: 7:07 PM EDT (23:07 GMT) Lon: -73.483
Time Zone: US/Eastern Elev: 459 ft

Show me the last for .
Show Coded

Time T Td Feel RH Dir Speed Gust Alt SLP Vis Weather Sky Remarks
2018-09-20 18:53 66 60 - 81 170° 5 - 30.25 30.24 10 OVC048 None
2018-09-20 17:53 67 59 - 75 180° 5 - 30.24 30.23 10 OVC046 None
2018-09-20 16:53 68 58 - 70 150° 5 - 30.23 30.23 10 OVC044 None
2018-09-20 15:53 69 57 - 65 - Calm - 30.23 30.22 10 BKN038 None
2018-09-20 14:53 70 58 - 65 - Calm - 30.24 30.22 10 FEW032 OVC050 None
2018-09-20 13:53 68 55 - 63 Variable 3 - 30.25 30.24 10 OVC031 6-hr Min Temp (2pm): 60.1°F
6-hr Max Temp (2pm): 69.1°F
2018-09-20 12:53 68 55 - 63 90° 6 - 30.26 30.25 10 FEW039 OVC050 None
2018-09-20 11:53 67 55 - 65 80° 6 - 30.27 30.26 10 SCT037 OVC050 None
2018-09-20 10:53 64 56 - 74 40° 6 - 30.27 30.27 10 OVC035 None
2018-09-20 09:53 63 56 - 77 90° 8 - 30.25 30.24 10 OVC033 None
2018-09-20 08:53 62 55 - 77 70° 6 - 30.23 30.22 10 OVC032 None
2018-09-20 08:00 60 55 - 83 80° 5 - 30.22 - 10 OVC031 None
2018-09-20 07:53 60 55 - 83 110° 3 - 30.22 30.21 10 OVC029 6-hr Min Temp (8am): 60.1°F
6-hr Max Temp (8am): 63.0°F
2018-09-20 06:53 60 55 - 83 80° 5 - 30.19 30.17 10 OVC029 None
2018-09-20 05:53 61 56 - 83 90° 8 - 30.16 30.15 10 SCT019 OVC024 None
2018-09-20 04:53 61 57 - 86 60° 6 - 30.14 30.13 10 OVC020 None
2018-09-20 03:53 62 58 - 86 100° 7 - 30.13 30.12 10 FEW015 OVC025 None
2018-09-20 02:53 62 58 - 86 70° 5 - 30.12 30.11 10 OVC017 None
2018-09-20 01:53 63 59 - 86 Variable 3 - 30.12 30.11 10 OVC020 6-hr Min Temp (2am): 63.0°F
6-hr Max Temp (2am): 66.9°F
2018-09-20 01:23 63 60 - 90 80° 5 - 30.11 - 10 OVC017 None
2018-09-20 00:53 63 60 - 90 80° 6 - 30.11 30.10 10 OVC012 24-hr Min Temp (1am): 60.1°F
24-hr Max Temp (1am): 79.0°F
2018-09-19 23:53 64 61 - 89 100° 7 - 30.10 30.09 10 OVC014 None
2018-09-19 22:53 66 63 - 89 130° 7 - 30.09 30.07 10 OVC014 None
2018-09-19 21:53 66 64 - 93 - Calm - 30.08 30.07 10 BKN012 None
2018-09-19 21:48 66 64 - 93 - Calm - 30.07 - 10 BKN012 None
2018-09-19 20:53 66 64 - 93 120° 5 - 30.04 30.03 10 CLR None
2018-09-19 19:53 65 62 - 90 - Calm - 30.01 30.00 10 CLR 6-hr Min Temp (8pm): 64.9°F
6-hr Max Temp (8pm): 79.0°F

Support USWX by starting your Amazon purchase here.